This demonstration page uses our WeatherBlox Daily Observations layout. Learn more.

Left ArrowRight Arrow

38.88101, -77.10428

Hourly Observations for January 20, 2017

Temp ( °F °C ) Dew Point ( °F °C ) Humidity (%) Winds ( mph kmh ) Pressure ( in mb ) Visibility ( mi km ) Precip ( " mm )
12:52 am 00:52 Mostly Cloudy 40 4.4 38 3.3 93 93 N N/A 30.01 1016 10 16 N/A
1:52 am 01:52 Cloudy 40 4.4 38 3.3 93 93 N N/A 30.02 1017 10 16 N/A
2:52 am 02:52 Cloudy 41 5 39 3.9 93 93 N N/A 30.01 1016 10 16 N/A
3:52 am 03:52 Mostly Cloudy 40 4.4 37 2.8 89 89 ENE 5 7 29.99 1016 10 16 N/A
4:52 am 04:52 Cloudy 40 4.4 37 2.8 89 89 NE 6 9 29.99 1016 10 16 N/A
5:52 am 05:52 Cloudy 40 4.4 37 2.8 89 89 ENE 3 6 29.98 1015 10 16 N/A
6:52 am 06:52 Mostly Cloudy 41 5 37 2.8 86 86 N N/A 29.97 1015 10 16 N/A
7:52 am 07:52 Cloudy 42 5.6 38 3.3 85 85 N N/A 29.98 1015 10 16 N/A
8:52 am 08:52 Cloudy 43 6.1 38 3.3 82 82 N N/A 29.98 1015 10 16 N/A
9:52 am 09:52 Mostly Cloudy 44 6.7 39 3.9 83 83 N N/A 29.98 1015 10 16 N/A
10:52 am 10:52 Cloudy 46 7.8 40 4.4 79 79 N N/A 29.96 1015 10 16 N/A
11:52 am 11:52 Cloudy 48 8.9 41 5 77 77 S 5 7 29.91 1013 10 16 N/A
12:52 pm 12:52 Cloudy 49 9.4 42 5.6 77 77 S 8 13 29.91 1013 10 16 N/A
1:30 pm 13:30 Cloudy with Light Rain 46 8 43 6 87 87 S 10 17 29.91 1013 7 11 N/A
1:52 pm 13:52 Cloudy with Light Rain 47 8.3 45 7.2 93 93 S 9 15 29.89 1012 10 16 N/A
2:52 pm 14:52 Cloudy 49 9.4 45 7.2 86 86 S 6 9 29.88 1012 10 16 N/A
2:59 pm 14:59 Cloudy 48 8.9 45 7.2 89 89 S 6 9 29.88 1012 10 16 N/A
3:52 pm 15:52 Cloudy 48 8.9 45 7.2 89 89 S 8 13 29.88 1012 10 16 0.01 0.25
4:52 pm 16:52 Cloudy 48 8.9 45 7.2 89 89 SE 5 7 29.88 1012 10 16 N/A
5:52 pm 17:52 Cloudy 48 8.9 46 7.8 93 93 SSE 3 6 29.90 1012 10 16 N/A
6:52 pm 18:52 Cloudy 48 8.9 46 7.8 93 93 SSE 3 6 29.91 1013 10 16 N/A
7:52 pm 19:52 Cloudy 47 8.3 46 7.8 97 97 S 3 6 29.91 1013 9 14 N/A
8:18 pm 20:18 Cloudy 48 9 46 8 94 94 SSW 6 9 29.91 1013 10 16 N/A
8:39 pm 20:39 Cloudy 47 8.3 45 7.2 93 93 S 7 11 29.91 1013 9 14 N/A
8:52 pm 20:52 Cloudy 48 8.9 46 7.8 93 93 S 7 11 29.92 1013 9 14 N/A
9:08 pm 21:08 Cloudy with Mist and Fog 48 9 46 8 94 94 S 5 7 29.91 1013 4 6 N/A
9:29 pm 21:29 Cloudy with Mist and Fog 47 8.3 46 7.8 97 97 S 6 9 29.91 1013 5 8 N/A
9:42 pm 21:42 Cloudy with Mist and Fog 46 8 46 8 100 100 S 7 11 29.91 1013 5 8 N/A
9:50 pm 21:50 Cloudy with Mist and Fog 46 8 46 8 100 100 S 6 9 29.91 1013 5 8 N/A
9:52 pm 21:52 Cloudy with Mist and Fog 47 8.3 46 7.8 97 97 S 6 9 29.91 1013 5 8 N/A
10:42 pm 22:42 Cloudy with Mist and Fog 46 8 46 8 100 100 S 8 13 29.91 1013 4 6 N/A
10:52 pm 22:52 Cloudy with Mist and Fog 47 8.3 46 7.8 97 97 S 6 9 29.93 1013 6 10 N/A
10:59 pm 22:59 Cloudy with Mist and Fog 47 8.3 47 8.3 100 100 S 5 7 29.91 1013 6 10 N/A
11:27 pm 23:27 Cloudy with Drizzle 47 8.3 46 7.8 97 97 S 7 11 29.94 1014 3 5 N/A
11:52 pm 23:52 Cloudy with Drizzle 47 8.3 47 8.3 100 100 S 5 7 29.92 1013 4 6 N/A

Powered by AerisWeather